Location: Blue Sky Observatory
(43.1153°N, 70.9036°W)
Time: 02:49:04
(UTC-05:00)

Daily predictions for brighter satellites

Satellite Brightness Start Highest point End
(mag) Time Altitude Azimuth Time Altitude Azimuth Time Altitude Azimuth
Cosmos 2369 Rocket 4.3 03:32:39 18° NNE 03:33:45 19° NE 03:37:49 10° E
Cosmos 1943 Rocket 4.5 04:09:09 11° N 04:12:24 18° NE 04:16:05 10° E
Cosmos 2056 Rocket 3.7 04:19:12 63° ENE 04:19:16 63° ENE 04:24:19 10° SSE
Cosmos 1238 Rocket 4.3 04:24:54 43° S 04:24:54 43° S 04:28:58 10° S
SL-16 R/B 3.7 04:27:06 23° N 04:27:06 23° N 04:29:19 10° NNE
Lacrosse 5 rocket 4.1 04:26:51 11° NNE 04:26:51 11° NNE 04:27:02 10° NNE
USA 215 3.9 04:20:40 10° ENE 04:27:01 52° SE 04:32:45 13° SSW
Lacrosse 4 Rocket 4.2 04:26:39 10° NNE 04:27:58 11° NE 04:29:15 10° ENE
ADEOS II 4.3 04:24:34 10° N 04:25:04 13° N 04:25:04 13° N
COSMO-SKYMED 1 3.5 04:28:28 10° SE 04:32:37 45° ENE 04:34:13 31° NNE
Cosmos 1624 Rocket 3.9 04:32:25 82° NNW 04:32:40 89° ENE 04:37:59 10° SSE
Cosmos 44 Rocket 3.7 04:34:58 32° S 04:37:18 66° ESE 04:42:23 10° NE
Cosmos 1371 Rocket 4.1 04:38:35 61° SSW 04:38:35 61° SSW 04:43:10 10° S
CENTAUR R/B 3.5 04:41:19 32° NNW 04:41:19 32° NNW 04:46:52 10° NNE
USA 32 4.2 04:43:48 52° SW 04:43:48 52° SW 04:47:57 10° S
Cosmos 1602 4.3 04:39:47 10° S 04:43:40 58° E 04:47:35 10° NNE
SL-08 ROCKET BODY 4.2 04:39:37 10° SSW 04:45:31 63° W 04:51:22 10° N
Lacrosse 5 1.9 04:44:47 51° SSW 04:46:04 80° SE 04:51:12 10° NE
Okean 1-7 Rocket 4.2 04:43:57 22° N 04:46:37 54° ENE 04:50:55 10° SSE
Cosmos 192 4.3 04:42:59 10° SSW 04:47:53 81° ESE 04:52:48 10° NNE
Cosmos 1300 Rocket 3.5 04:44:49 10° S 04:49:14 85° E 04:53:40 10° N
Nadezhda 3 Rocket 4.2 04:45:35 10° N 04:51:59 75° E 04:58:21 10° SSE
Meteor 1-11 Rocket 4.1 04:46:41 10° S 04:52:29 68° E 04:58:10 10° NNE
Meteor 1-28 Rocket 4.4 04:52:49 10° SE 04:56:23 41° ENE 04:59:24 14° N
Meteor 1-13 Rocket 4.2 04:56:15 11° NNW 05:02:00 79° W 05:07:56 10° S
SKYMED 3 4.4 04:58:16 10° SSE 05:02:36 85° WSW 05:04:36 32° NNW
Cosmos 1452 Rocket 3.7 05:04:23 17° NNW 05:08:28 73° ENE 05:13:44 10° SSE
Meteor 2-13 Rocket 4.4 05:04:25 10° S 05:10:36 85° W 05:16:48 10° N
Cosmos 2074 Rocket 4.3 05:05:15 10° SW 05:11:08 42° WNW 05:17:01 10° N
Tiangong 2 1.0 05:13:29 71° SSW 05:13:29 71° SSW 05:16:38 10° ESE
Meteor 2-4 Rocket 3.7 05:09:54 10° N 05:15:28 81° E 05:21:09 10° SSE
Cosmos 2369 Rocket 2.1 05:14:29 21° NNW 05:18:27 77° WSW 05:24:08 10° SSE
Cosmos 2341 Rocket 4.0 05:13:04 10° S 05:19:22 89° ENE 05:25:39 10° N
SKYMED 2 3.6 05:16:25 10° S 05:20:39 53° W 05:22:50 26° NW
Cosmos 1603 4.1 05:19:00 24° WSW 05:21:56 41° WNW 05:27:17 10° NNE
ATLAS 5 CENTAUR R/B 4.5 05:21:56 10° N 05:23:27 11° NNE 05:25:02 10° NNE
Okean 2 3.9 05:24:12 10° N 05:28:21 60° E 05:32:27 10° SSE
Kosmos-1675 4.3 05:25:44 10° SSW 05:28:29 66° ESE 05:39:03 10° NE
NOAA 6 4.3 05:23:47 10° N 05:28:39 44° WNW 05:33:29 10° SW
Cosmos 44 3.4 05:26:39 10° SW 05:32:01 76° NW 05:37:13 10° NNE
SL-23 DEB 3.7 05:33:08 31° NW 05:34:24 59° NNE 05:37:57 10° ESE
SL-24 R/B 4.4 05:33:48 10° N 05:39:14 74° WNW 05:43:50 10° SSW
Cosmos 1536 3.0 05:37:37 10° SSW 05:41:28 46° WNW 05:45:22 10° N
USA 129 1.5 05:40:10 10° SSE 05:42:17 84° WSW 05:42:56 39° NNW
Cosmos 1025 Rocket 3.1 05:38:25 10° NNW 05:42:43 56° W 05:46:58 10° S
USA 229 DEB 3.8 05:35:51 10° SSW 05:42:44 83° ESE 05:49:43 10° NE
CZ-4 R/B 2.2 05:38:56 10° NNE 05:42:48 53° E 05:46:36 10° S
USA 229 3.8 05:35:57 10° SSW 05:42:50 82° ESE 05:49:49 10° NE
Cosmos 1943 3.2 05:39:20 10° SW 05:44:51 56° WNW 05:50:26 10° NNE
Cosmos 2154 Rocket 4.2 05:39:24 10° SSW 05:45:18 45° WNW 05:51:13 10° N
Cosmos 1269 Rocket 4.3 05:43:53 10° SSW 05:49:09 75° ESE 05:54:28 10° NNE
YAOGAN 1 3.9 05:45:06 10° NNE 05:49:15 44° E 05:53:23 10° S
Cosmos 1633 3.7 05:48:35 10° SW 05:51:28 22° WNW 05:54:20 10° NNW
IRS-1A Rocket 4.3 05:49:10 10° NNE 05:54:54 89° WNW 06:00:44 10° SSW
Meteor 2-8 Rocket 4.4 05:49:19 10° NNW 05:55:29 73° W 06:01:36 10° S
Cosmos 1943 Rocket 2.1 05:51:18 10° NNW 05:56:50 80° WSW 06:02:20 10° SSE
SJ-12 4.2 05:53:30 10° NNE 05:57:40 72° ESE 06:01:49 10° S
Abrixas rocket 2.6 05:55:52 19° W 05:58:00 46° NNW 06:01:16 10° ENE
Cosmos 468 4.5 05:54:02 10° SSW 05:59:15 67° WNW 06:04:33 10° NNE
Cosmos 1420 Rocket 4.0 05:56:31 10° NNW 06:01:44 66° WSW 06:06:52 10° S
Okean 1 Rocket 4.3 05:59:42 10° WSW 06:03:00 20° WNW 06:06:17 10° NNW
Cosmos 1544 Rocket 3.5 06:00:43 10° SSW 06:05:02 70° W 06:09:27 10° N
CZ-3 R/B 3.4 06:00:58 10° SW 06:05:20 15° SSW 06:07:56 10° SSE
Lacrosse 5 rocket 3.6 06:03:12 10° NNW 06:05:41 15° NNE 06:08:14 10° NE
Lacrosse 4 Rocket 1.4 06:03:14 10° NNW 06:07:24 81° ENE 06:11:29 10° SSE
COSMO-SKYMED 1 4.1 06:06:12 10° SW 06:09:00 17° W 06:11:26 11° NW
USA 215 3.4 06:03:42 10° NE 06:10:02 54° NNW 06:16:20 10° WSW
Ariane Rocket 3.6 06:07:06 10° N 06:11:37 33° WNW 06:16:06 10° SW
SL-8 Rocket 4.1 06:08:28 10° SSW 06:14:37 57° WNW 06:20:44 10° N
CZ-2C R/B 2.5 06:09:38 10° NNE 06:14:51 89° WNW 06:19:53 10° SSW
SPOT 3 Rocket 3.7 06:09:47 10° NNE 06:14:58 81° ESE 06:20:07 10° SSW
Cosmos 1048 Rocket 3.9 06:11:43 10° SSW 06:16:49 70° WNW 06:22:01 10° NNE
Cosmos 1656 Rocket 4.0 06:13:48 10° NNW 06:19:29 74° ENE 06:25:10 10° SSE
AQUARIUS 4.1 06:18:36 10° N 06:23:06 73° WNW 06:27:34 10° SSW
Meteor 1-29 2.8 06:21:18 10° S 06:24:39 74° WSW 06:28:03 10° NNW
Cosmos 1500 3.3 06:21:44 10° S 06:25:29 81° E 06:29:15 10° N
Cosmos 1975 2.8 06:22:36 10° SSW 06:26:42 78° W 06:30:50 10° N
Cosmos 2366 rocket 4.1 06:20:53 10° SSW 06:27:06 63° W 06:33:25 10° N
Cosmos 1066 Rocket 4.4 06:22:59 10° N 06:28:24 77° E 06:33:54 10° SSE
Cosmos 1892 Rocket 4.4 06:24:36 10° NNW 06:28:34 32° W 06:32:33 10° SSW
Lacrosse 5 2.9 06:25:09 10° W 06:29:32 28° NNW 06:33:56 10° NE
MSX 4.1 06:26:40 10° NNE 06:32:27 78° ESE 06:38:11 10° S
Helios 1B rocket 2.7 06:28:51 10° S 06:32:52 48° W 06:36:54 10° NNW
CENTAUR R/B 4.4 06:29:51 10° NW 06:33:49 15° N 06:38:00 10° NNE
Cosmos 405 Rocket 3.5 06:31:16 10° N 06:35:01 54° ENE 06:38:41 10° SSE
Cosmos 2218 Rocket 4.3 06:29:20 10° SSW 06:35:30 48° WNW 06:41:40 10° N
